Location: Newark
(55.7833°N, 49.1667°E)
Time: 13:14:54
(UTC+00:00)

N. Korean satellite - Visible Passes

Search period start: 29 September 2020 00:00
Search period end: 09 October 2020 00:00
Orbit: 455 x 503 km, 97.2° (Epoch: 28 September)

Date Brightness Start Highest point End Pass type
(mag) Time Alt. Az. Time Alt. Az. Time Alt. Az.
29 Sep 8.5 01:58:51 10° NNE 02:02:16 36° E 02:05:37 10° SSE visible
30 Sep 9.6 01:33:13 10° NE 01:36:03 21° E 01:38:50 10° SE visible
01 Oct 10.1 01:08:11 10° ENE 01:09:43 12° E 01:11:14 10° ESE visible
03 Oct 8.9 01:48:10 10° NNE 01:51:21 29° E 01:54:30 10° SSE visible
04 Oct 9.8 01:22:40 10° NE 01:25:04 17° E 01:27:26 10° SE visible
05 Oct 10.5 14:47:12 10° WSW 14:48:38 12° W 14:50:04 10° WNW visible
06 Oct 8.2 02:03:10 10° NNE 02:06:35 40° E 02:09:56 10° S visible
07 Oct 9.4 01:37:26 10° NE 01:40:20 23° E 01:43:11 10° SE visible
08 Oct 10.0 01:12:14 10° ENE 01:13:59 13° E 01:15:43 10° ESE visible
